Location: Pella
(41.4080°N, 92.9160°W)
Time: 08:22:45
(UTC-05:00)

Iridium 91 - Visible Passes

Search period start: 31 July 2015 00:00
Search period end: 10 August 2015 00:00
Orbit: 776 x 779 km, 86.4° (Epoch: 30 July)

Date Brightness Start Highest point End Pass type
(mag) Time Alt. Az. Time Alt. Az. Time Alt. Az.
01 Aug 8.5 05:14:04 10° NE 05:17:16 17° ENE 05:20:41 10° ESE visible
04 Aug 8.1 05:13:30 10° NNE 05:17:38 24° ENE 05:21:51 10° SE visible
05 Aug 8.6 04:41:23 10° NE 04:43:40 13° ENE 04:46:14 10° E visible
07 Aug 7.4 05:13:13 10° NNE 05:17:55 34° E 05:22:38 10° SE visible
08 Aug 8.3 04:40:29 10° NNE 04:44:04 19° ENE 04:47:48 10° ESE visible
09 Aug 8.9 04:09:55 10° ENE 04:10:02 10° ENE 04:10:32 10° ENE visible
